EW0362 Weather Reports


time (UTC)temp
F
wind
direction
speed
knots
gust
knots
rain 1hr
in
rain 24hr
in
rain mn
in
humidity
%
barometer
mb
20260505210204 84 189 2.6 10.4 0.00 0.00 0.00 34 1003.8
20260505205705 84 253 4.3 10.4 0.00 0.00 0.00 32 1003.7
20260505204705 84 169 4.3 7.8 0.00 0.00 0.00 31 1003.6
20260505201204 84 211 3.5 6.1 0.00 0.00 0.00 36 1003.8
20260505200205 84 240 3.5 7.8 0.00 0.00 0.00 38 1003.8
20260505195204 84 190 2.6 7.8 0.00 0.00 0.00 35 1003.7
20260505194705 84 161 2.6 7.0 0.00 0.00 0.00 35 1003.7
20260505193704 84 212 2.6 6.1 0.00 0.00 0.00 36 1003.9
20260505192704 85 150 1.7 8.7 0.00 0.00 0.00 36 1003.9
20260505192205 85 199 3.5 8.7 0.00 0.00 0.00 36 1003.9
20260505191704 84 192 2.6 7.0 0.00 0.00 0.00 37 1004.0
20260505191205 84 226 2.6 7.0 0.00 0.00 0.00 38 1004.1
20260505190704 84 231 1.7 8.7 0.00 0.00 0.00 37 1004.3
20260505190205 84 167 4.3 14.8 0.00 0.00 0.00 37 1004.4
20260505185705 84 201 2.6 13.0 0.00 0.00 0.00 37 1004.3
20260505183704 84 185 2.6 5.2 0.00 0.00 0.00 38 1004.9
20260505183205 84 191 2.6 5.2 0.00 0.00 0.00 39 1005.0
20260505181704 83 241 2.6 7.0 0.00 0.00 0.00 40 1005.0
20260505180705 83 231 3.5 8.7 0.00 0.00 0.00 39 1005.1
20260505175704 83 189 4.3 7.0 0.00 0.00 0.00 40 1005.3
20260505175205 83 178 3.5 11.3 0.00 0.00 0.00 40 1005.4
20260505174205 83 252 2.6 10.4 0.00 0.00 0.00 41 1005.6
20260505173204 83 210 4.3 7.0 0.00 0.00 0.00 41 1005.6
20260505172704 82 215 2.6 6.1 0.00 0.00 0.00 40 1005.6
20260505172204 82 192 0.9 5.2 0.00 0.00 0.00 42 1005.7
20260505171704 82 194 2.6 6.1 0.00 0.00 0.00 41 1005.8
20260505171205 81 190 1.7 7.0 0.00 0.00 0.00 43 1005.9
20260505170705 81 185 2.6 5.2 0.00 0.00 0.00 43 1006.1
20260505164704 81 179 2.6 5.2 0.00 0.00 0.00 43 1006.4
20260505163704 81 138 3.5 7.0 0.00 0.00 0.00 43 1006.5
20260505162704 80 208 2.6 10.4 0.00 0.00 0.00 44 1006.6
20260505161204 79 131 1.7 2.6 0.00 0.00 0.00 46 1007.0
20260505160704 79 202 0.9 4.3 0.00 0.00 0.00 47 1007.2
20260505160204 78 269 0.9 5.2 0.00 0.00 0.00 47 1007.3
20260505151705 74 189 0.9 2.6 0.00 0.00 0.00 52 1008.1
20260505151204 74 216 0.9 2.6 0.00 0.00 0.00 53 1008.2
20260505150704 74 200 0.9 5.2 0.00 0.00 0.00 54 1008.2
20260505150204 73 249 1.7 6.1 0.00 0.00 0.00 54 1008.3
20260505140204 69 244 1.7 4.3 0.00 0.00 0.00 60 1008.5
20260505123705 62 177 0.9 1.7 0.00 0.00 0.00 70 1008.6
20260505123204 62 177 0.9 2.6 0.00 0.00 0.00 70 1008.7
20260505122704 61 244 1.7 2.6 0.00 0.00 0.00 72 1008.8
20260505122204 61 189 0.9 2.6 0.00 0.00 0.00 72 1008.9
20260505120204 58 258 1.7 2.6 0.00 0.00 0.00 78 1009.1
20260505115704 57 245 0.9 4.3 0.00 0.00 0.00 79 1009.1
20260505115205 57 155 0.9 2.6 0.00 0.00 0.00 81 1009.0
20260505113204 54 190 0.0 0.9 0.00 0.00 0.00 84 1008.8
20260505111704 52 190 0.0 1.7 0.00 0.00 0.00 88 1008.8
20260505111204 51 190 0.9 1.7 0.00 0.00 0.00 88 1008.8
20260505110704 51 189 0.0 0.0 0.00 0.00 0.00 88 1008.7
20260505101704 49 189 0.0 0.0 0.00 0.00 0.00 88 1008.8
20260505100704 48 189 0.0 0.0 0.00 0.00 0.00 87 1008.7
20260505095703 48 189 0.0 0.0 0.00 0.00 0.00 86 1008.7
20260505093204 48 189 0.0 0.0 0.00 0.00 0.00 87 1008.8
20260505092704 48 189 0.0 0.0 0.00 0.00 0.00 87 1008.7
20260505092204 48 189 0.0 0.0 0.00 0.00 0.00 86 1008.7
20260505091704 48 189 0.0 0.0 0.00 0.00 0.00 87 1008.8
20260505083704 48 189 0.0 0.0 0.00 0.00 0.00 85 1008.8
20260505082703 49 189 0.0 0.0 0.00 0.00 0.00 84 1008.9
20260505080704 49 189 0.0 0.0 0.00 0.00 0.00 83 1008.9
20260505075704 49 189 0.0 0.0 0.00 0.00 0.00 83 1009.0
20260505073204 50 189 0.0 0.0 0.00 0.00 0.00 82 1009.1
20260505072704 50 189 0.0 0.0 0.00 0.00 0.00 82 1009.1
20260505072204 51 189 0.0 0.0 0.00 0.00 0.00 82 1009.1
20260505071704 51 189 0.0 0.0 0.00 0.00 0.00 81 1009.0
20260505071203 51 189 0.0 0.0 0.00 0.00 0.00 81 1009.1
20260505065704 51 189 0.0 0.0 0.00 0.00 0.00 80 1009.1
20260505064703 51 189 0.0 0.0 0.00 0.00 0.00 80 1009.1
20260505063704 51 189 0.0 0.0 0.00 0.00 0.00 79 1009.2
20260505063204 51 189 0.0 0.0 0.00 0.00 0.00 79 1009.2
20260505062704 52 189 0.0 0.0 0.00 0.00 0.00 78 1009.3
20260505061704 52 189 0.0 0.0 0.00 0.00 0.00 77 1009.3
20260505060704 52 189 0.0 0.0 0.00 0.00 0.00 77 1009.3
20260505055703 52 189 0.0 0.0 0.00 0.00 0.00 77 1009.3
20260505055204 53 189 0.0 0.0 0.00 0.00 0.00 76 1009.4
20260505054203 53 189 0.0 0.0 0.00 0.00 0.00 75 1009.6
20260505053703 53 189 0.0 0.0 0.00 0.00 0.00 74 1009.5
20260505053204 53 189 0.0 0.0 0.00 0.00 0.00 74 1009.5
20260505051204 54 189 0.0 0.0 0.00 0.00 0.00 72 1009.5
20260505050704 54 189 0.0 0.0 0.00 0.00 0.00 72 1009.5
20260505050205 54 189 0.0 1.7 0.00 0.00 0.00 71 1009.6
20260505041704 56 191 0.0 0.0 0.00 0.00 0.00 66 1009.4
20260505041204 57 191 0.0 0.0 0.00 0.00 0.00 65 1009.3
20260505040704 57 191 0.0 0.9 0.00 0.00 0.00 64 1009.4
20260505035203 58 192 0.0 0.9 0.00 0.00 0.00 63 1009.3
20260505032705 59 183 0.0 1.7 0.00 0.00 0.00 61 1009.2
20260505030203 60 199 0.9 1.7 0.00 0.00 0.00 59 1009.1
20260505025704 60 199 0.9 1.7 0.00 0.00 0.00 58 1009.1
20260505024703 60 200 0.9 1.7 0.00 0.00 0.00 57 1009.0
20260505023204 61 198 0.9 2.6 0.00 0.00 0.00 56 1009.0
20260505022704 61 175 1.7 5.2 0.00 0.00 0.00 56 1009.1
20260505021704 61 194 0.9 2.6 0.00 0.00 0.00 56 1009.1
20260505021204 61 194 0.9 2.6 0.00 0.00 0.00 55 1009.1
20260505020704 62 194 0.9 2.6 0.00 0.00 0.00 55 1009.0
20260505020203 62 187 0.9 2.6 0.00 0.00 0.00 55 1009.0
20260505015705 62 244 0.9 1.7 0.00 0.00 0.00 53 1008.9
20260505014703 62 243 1.7 5.2 0.00 0.00 0.00 54 1008.9
20260505014204 62 194 0.9 2.6 0.00 0.00 0.00 53 1008.8
20260505011704 64 140 1.7 4.3 0.00 0.00 0.00 52 1008.4
20260505011203 64 182 0.9 4.3 0.00 0.00 0.00 51 1008.3
20260505010703 64 174 0.9 2.6 0.00 0.00 0.00 50 1008.2
20260505010204 64 171 0.9 2.6 0.00 0.00 0.00 49 1008.1
20260505005203 65 222 1.7 6.1 0.00 0.00 0.00 48 1007.8
20260505003706 65 178 1.7 7.8 0.00 0.00 0.00 48 1007.5
20260505003206 64 183 2.6 7.8 0.00 0.00 0.00 48 1007.4
20260505002205 65 194 0.0 1.7 0.00 0.00 0.00 48 1006.9
20260505001706 65 194 0.0 0.0 0.00 0.00 0.00 46 1006.7
20260505001206 65 194 0.0 0.0 0.00 0.00 0.00 46 1006.7
20260505000706 66 194 0.0 0.0 0.00 0.00 0.00 45 1006.6
20260504233206 68 169 0.0 1.7 0.00 0.00 0.00 42 1006.1
20260504232705 68 207 0.0 1.7 0.00 0.00 0.00 40 1006.1
20260504232205 69 207 0.0 0.9 0.00 0.00 0.00 40 1006.0
20260504230706 70 187 0.0 1.7 0.00 0.00 0.00 38 1005.8
20260504225705 70 228 0.0 1.7 0.00 0.00 0.00 37 1005.7
20260504225206 71 250 1.7 2.6 0.00 0.00 0.00 37 1005.7
20260504224205 71 185 0.0 2.6 0.00 0.00 0.00 37 1005.5
20260504223706 71 241 0.9 2.6 0.00 0.00 0.00 36 1005.5
20260504222205 72 239 1.7 2.6 0.00 0.00 0.00 36 1005.4
20260504221706 72 229 0.0 1.7 0.00 0.00 0.00 36 1005.4
20260504221205 72 229 0.0 2.6 0.00 0.00 0.00 35 1005.4
20260504215206 72 225 2.6 4.3 0.00 0.00 0.00 35 1005.5
20260504214206 73 187 1.7 6.1 0.00 0.00 0.00 35 1005.5
20260504213705 73 269 1.7 2.6 0.00 0.00 0.00 34 1005.5
20260504213205 73 281 1.7 5.2 0.00 0.00 0.00 35 1005.5
20260504212205 73 181 1.7 7.0 0.00 0.00 0.00 35 1005.5